JA0QEV-13 Weather Reports


time (UTC)temp
C
wind
direction
speed
KPH
gust
KPH
rain 1hr
cm
rain 24hr
cm
rain mn
cm
humidity
%
barometer
mb
20260504185828 6 135 0.0 1.6 0.00 0.61 0.00 94 1015.9
20260504185338 6 114 0.0 1.6 0.00 0.61 0.00 93 1015.8
20260504184828 6 115 0.0 1.6 0.00 0.61 0.00 93 1015.8
20260504184318 6 96 0.0 3.2 0.00 0.61 0.00 93 1015.8
20260504183848 7 96 0.0 3.2 0.00 0.61 0.00 93 1015.7
20260504183316 7 143 0.0 1.6 0.00 0.61 0.00 92 1015.5
20260504182823 7 203 0.0 3.2 0.00 0.61 0.00 93 1015.3
20260504182316 7 198 0.0 1.6 0.00 0.61 0.00 92 1015.2
20260504181825 7 207 0.0 3.2 0.00 0.61 0.00 92 1015.2
20260504181315 7 209 0.0 3.2 0.00 0.61 0.00 92 1015.3
20260504180846 7 144 0.0 0.0 0.00 0.61 0.00 92 1015.4
20260504180355 7 186 0.0 1.6 0.00 0.61 0.00 92 1015.3
20260504175819 7 184 0.0 1.6 0.00 0.61 0.00 92 1015.2
20260504175330 7 183 0.0 1.6 0.00 0.61 0.00 91 1015.0
20260504174820 7 184 0.0 1.6 0.00 0.61 0.00 91 1015.0
20260504174330 7 184 0.0 0.0 0.00 0.61 0.00 91 1015.0
20260504173841 7 184 0.0 0.0 0.00 0.61 0.00 91 1015.0
20260504173330 7 184 0.0 0.0 0.00 0.61 0.00 91 1015.0
20260504172837 7 184 0.0 3.2 0.00 0.61 0.00 91 1015.0
20260504172327 7 197 0.0 3.2 0.00 0.61 0.00 90 1015.0
20260504171816 8 195 0.0 1.6 0.00 0.61 0.00 90 1015.0
20260504171324 8 195 0.0 1.6 0.00 0.61 0.00 90 1015.0
20260504170818 8 196 0.0 1.6 0.00 0.61 0.00 90 1014.9
20260504160319 10 329 1.6 3.2 0.00 0.66 0.00 79 1014.7
20260504150823 11 87 11.3 25.7 0.00 0.71 0.00 75 1014.4
20260504150354 11 91 16.1 25.7 0.00 0.71 0.00 75 1014.3
20260504141325 11 89 3.2 11.3 0.00 0.76 0.71 81 1014.0
20260504140834 11 99 4.8 12.9 0.00 0.76 0.71 81 1014.0
20260504140322 11 81 6.4 16.1 0.00 0.76 0.71 80 1014.0
20260504130820 11 91 9.7 24.1 0.03 0.84 0.71 78 1013.5
20260504130331 11 123 8.0 32.2 0.03 0.84 0.71 78 1013.5
20260504110325 12 96 17.7 45.1 0.00 0.89 0.56 78 1010.2